This is the latest recevied weather packets stored in our database for station/object WA4IKQ. If no packets are shown the sender has not sent any weather packets the latest 10 day(s).
| Time | Temp. | Humidity | Pressure | Rain* | Wind** | Luminosity | Snow |
|---|---|---|---|---|---|---|---|
| 1777814970 | 19.44° C | 85% | 1017.1 hPa | 0 mm | 1.34 m/s, 316° | - | - |
| 1777814887 | 19.44° C | 85% | 1017.1 hPa | 0 mm | 3.13 m/s, 333° | - | - |
| 1777814668 | 18.89° C | 86% | 1017 hPa | 0 mm | 0.89 m/s, 304° | - | - |
| 1777814666 | 19.44° C | 85% | 1017.1 hPa | 0 mm | 3.13 m/s, 333° | - | - |
| 1777814402 | 18.89° C | 86% | 1016.9 hPa | 0 mm | 1.34 m/s, 11° | - | - |
| 1777814367 | 18.89° C | 86% | 1017 hPa | 0 mm | 0.89 m/s, 304° | - | - |
| 1777814066 | 18.89° C | 86% | 1016.9 hPa | 0 mm | 1.34 m/s, 11° | - | - |
| 1777814048 | 18.89° C | 86% | 1017 hPa | 0 mm | 0.45 m/s, 326° | - | - |
| 1777813770 | 18.89° C | 86% | 1017 hPa | 0 mm | 0.45 m/s, 326° | - | - |
| 1777813469 | 18.89° C | 86% | 1017 hPa | 0 mm | 1.79 m/s, 349° | - | - |
| 1777813301 | 18.89° C | 87% | 1016.7 hPa | 0 mm | 0.45 m/s, 311° | - | - |
| 1777813185 | 18.89° C | 87% | 1016.9 hPa | 0 mm | 3.13 m/s, 294° | - | - |
| 1777812998 | 18.89° C | 87% | 1016.7 hPa | 0 mm | 1.34 m/s, 359° | - | - |
| 1777812865 | 18.89° C | 87% | 1016.7 hPa | 0 mm | 0.45 m/s, 311° | - | - |
| 1777812566 | 18.89° C | 87% | 1016.7 hPa | 0 mm | 1.34 m/s, 359° | - | - |
| 1777812497 | 18.89° C | 87% | 1016.6 hPa | 0 mm | 2.68 m/s, 328° | - | - |
| 1777812367 | 18.89° C | 87% | 1016.6 hPa | 0 mm | 4.02 m/s, 345° | - | - |
| 1777812265 | 18.89° C | 87% | 1016.6 hPa | 0 mm | 2.68 m/s, 328° | - | - |
| 1777812014 | 18.89° C | 87% | 1016.6 hPa | 0 mm | 2.24 m/s, 339° | - | - |
| 1777811965 | 18.89° C | 87% | 1016.6 hPa | 0 mm | 4.02 m/s, 345° | - | - |
| 1777811665 | 18.89° C | 87% | 1016.6 hPa | 0 mm | 2.24 m/s, 339° | - | - |
| 1777811599 | 18.33° C | 88% | 1016.6 hPa | 0 mm | 1.79 m/s, 339° | - | - |
| 1777811369 | 18.33° C | 88% | 1016.6 hPa | 0 mm | 1.79 m/s, 339° | - | - |
| 1777811326 | 18.33° C | 88% | 1016.4 hPa | 0 mm | 2.24 m/s, 359° | - | - |
| 1777811068 | 18.33° C | 88% | 1016.4 hPa | 0 mm | 2.24 m/s, 359° | - | - |
* Rain latest hour (hover to see other rain measurements)
** Current wind speed in m/s (hover to see current wind gust speed)